Mount Ida, AR

4:10 AM CST on February 12, 2016 (GMT -0600)
Mount Ida

Weather History for KMWT - February, 2014

Change the Weather History Date:

Friday, February 21, 2014

  Actual Average (KHOT) Record (KHOT)
Temperature  
Mean Temperature 46 °F -  
Max Temperature 64 °F 61 °F 87 °F (1986)
Min Temperature 28 °F 35 °F 18 °F (1978)
Degree Days  
Heating Degree Days 19    
Moisture  
Dew Point 20 °F    
Average Humidity 46    
Maximum Humidity 92    
Minimum Humidity 12    
Precipitation  
Precipitation 0.00 in - - ()
Sea Level Pressure  
Sea Level Pressure 30.05 in    
Wind  
Wind Speed 2 mph (WNW)    
Max Wind Speed 7 mph    
Max Gust Speed -    
Visibility 9 miles    
Events      
Averages and records for this station are not official NWS values.
T = Trace of Precipitation, MM = Missing Value Source: NWS Daily Summary

Daily Weather History Graph

Daily Weather History Graph

Search for Another Location

Airport or City:

Trip Planner

Search our weather history database for the weather conditions in past years. The results will help you decide how hot, cold, wet, or windy it might be!

Date:

Astronomy

Feb. 21, 2014 Rise Set
Actual Time 6:53 AM CST 6:03 PM CST
Civil Twilight 6:27 AM CST 6:28 PM CST
Nautical Twilight 5:58 AM CST 6:58 PM CST
Astronomical Twilight 5:29 AM CST 7:27 PM CST
Moon No Moon Rise 10:34 AM CST (2/21)
Length of Visible Light 12h 01m
Length of Day
11h 10m
Waning Gibbous, 60% of the Moon is Illuminated
Feb 21
Waning Gibbous
Feb 22
Last Quarter
Mar 1
New
Mar 8
First Quarter
Mar 16
Full

Hourly Weather History & Observations

Time (CST) Temp. Windchill Dew Point Humidity Pressure Visibility Wind Dir Wind Speed Gust Speed Precip Events Conditions
12:53 AM 39.0 °F 36.8 °F 28.9 °F 67% 30.01 in 10.0 mi NW 3.5 mph - N/A   Clear
1:53 AM 41.0 °F 37.1 °F 24.1 °F 51% 29.99 in 10.0 mi NW 5.8 mph - N/A   Clear
2:53 AM 41.0 °F - 21.0 °F 45% 30.02 in 10.0 mi Calm Calm - N/A   Clear
3:53 AM 37.0 °F 34.5 °F 21.9 °F 54% 30.03 in 10.0 mi WNW 3.5 mph - N/A   Clear
4:53 AM 34.0 °F - 21.9 °F 61% 30.05 in 8.0 mi Calm Calm - N/A   Clear
5:53 AM 28.9 °F - 26.1 °F 89% 30.09 in 10.0 mi Calm Calm - N/A   Clear
6:44 AM 28.9 °F - 24.1 °F 82% 30.07 in 2.5 mi Calm Calm - N/A   Haze
6:53 AM 28.9 °F - 26.1 °F 89% 30.09 in 2.5 mi Calm Calm - N/A   Clear
7:02 AM 28.0 °F - 26.1 °F 92% 30.07 in 6.0 mi Calm Calm - N/A   Clear
7:53 AM 30.9 °F - 26.1 °F 82% 30.12 in 10.0 mi Calm Calm - N/A   Clear
8:53 AM 43.0 °F - 26.1 °F 51% 30.13 in 10.0 mi Calm Calm - N/A   Clear
9:53 AM 51.1 °F - 17.1 °F 26% 30.12 in 10.0 mi Variable 3.5 mph - N/A   Clear
10:53 AM 54.0 °F - 10.0 °F 17% 30.11 in 10.0 mi Variable 3.5 mph - N/A   Clear
11:53 AM 57.9 °F - 10.9 °F 16% 30.09 in 10.0 mi North - - N/A   Clear
12:53 PM 60.1 °F - 6.1 °F 12% 30.06 in 10.0 mi North - - N/A   Clear
1:53 PM 63.0 °F - 16.0 °F 16% 30.02 in 10.0 mi Variable 6.9 mph - N/A   Clear
2:53 PM 64.0 °F - 12.9 °F 14% 30.00 in 10.0 mi Calm Calm - N/A   Clear
3:53 PM 62.1 °F - 14.0 °F 15% 30.00 in 10.0 mi Variable 4.6 mph - N/A   Clear
4:53 PM 61.0 °F - 14.0 °F 16% 30.01 in 10.0 mi Variable 5.8 mph - N/A   Clear
5:53 PM 57.9 °F - 14.0 °F 18% 30.02 in 10.0 mi Variable 4.6 mph - N/A   Clear
6:53 PM 55.0 °F - 15.1 °F 21% 30.04 in 4.0 mi Calm Calm - N/A   Haze
7:53 PM 54.0 °F - 15.1 °F 22% 30.05 in 10.0 mi Calm Calm - N/A   Clear
8:53 PM 46.0 °F - 19.0 °F 34% 30.05 in 10.0 mi Calm Calm - N/A   Clear
9:53 PM 42.1 °F - 23.0 °F 47% 30.05 in 4.0 mi Calm Calm - N/A   Haze
10:53 PM 37.0 °F - 30.0 °F 76% 30.05 in 6.0 mi Calm Calm - N/A   Haze
11:53 PM 37.0 °F - 28.0 °F 70% 30.06 in 10.0 mi Calm Calm - N/A   Clear